sat.trackr.live / text

‹ back to catalog

STARLINK-4486

NORAD 53540 · 2022-101P

PAYLOAD ACTIVE UNKNOWN

§ Identity

Operator
Country
US
Launch date
2022-08-19
Launch site
AFETR
Launch vehicle
Mass (kg)
RCS (m²)

Purposes: comms

External: N2YO · Heavens-Above · Gunter

§ Orbital elements

Epoch: 2026-05-25T02:41:23.907264Z

Period
95.44 min
Inclination
53.2164°
Eccentricity
0.0001482
Mean motion
15.08861035 rev/d
Perigee alt
538.7 km
Apogee alt
540.7 km
Semi-major
6,917.8 km
B*
2.1521e-4
RAAN
81.4012°
Arg perigee
89.3298°
Mean anomaly
270.7864°
Rev number
20,852

§ Raw data

STARLINK-44861 53540U 22101P   26145.11208226  .00003141  00000+0  21521-3 0  99952 53540  53.2164  81.4012 0001482  89.3298 270.7864 15.08861035208528

JSON: /api/v1/satellites/53540 · /tle

For live sub-satellite position, see the globe view (requires WebGL).

§ Visibility from observer

Set your observer location to see the next 7 days of passes ≥ 10°. The values pass through the URL so the page stays shareable.

No JS? Fill the form by hand. The geolocation button needs JavaScript.